E1959 Weather Reports


time (UTC)temp
C
wind
direction
speed
KPH
gust
KPH
rain 1hr
cm
rain 24hr
cm
rain mn
cm
humidity
%
barometer
mb
20260510171441 30 295 4.8 9.7 0.00 0.00 0.00 75 1013.8
20260510170935 30 355 4.8 11.3 0.00 0.00 0.00 75 1013.7
20260510170429 30 326 4.8 11.3 0.00 0.00 0.00 74 1013.7
20260510165922 30 326 6.4 16.1 0.00 0.00 0.00 77 1014.0
20260510165417 30 347 6.4 19.3 0.00 0.00 0.00 76 1013.9
20260510164911 31 284 3.2 19.3 0.00 0.00 0.00 72 1014.0
20260510164406 31 35 1.6 6.4 0.00 0.00 0.00 71 1013.9
20260510163858 31 199 1.6 6.4 0.00 0.00 0.00 75 1014.1
20260510163616 30 45 3.2 8.0 0.00 0.00 0.00 73 1014.2
20260510162847 30 231 3.2 8.0 0.00 0.00 0.00 73 1014.3
20260510162602 30 236 3.2 8.0 0.00 0.00 0.00 76 1014.3
20260510161835 30 243 3.2 11.3 0.00 0.00 0.00 75 1014.4
20260510161328 30 219 4.8 11.3 0.00 0.00 0.00 75 1014.6
20260510160823 30 291 4.8 9.7 0.00 0.00 0.00 76 1014.5
20260510160536 29 219 6.4 16.1 0.00 0.00 0.00 76 1014.5
20260510155811 30 214 6.4 16.1 0.00 0.00 0.00 75 1014.7
20260510155306 30 139 6.4 14.5 0.00 0.00 0.00 75 1014.8
20260510154759 30 159 6.4 14.5 0.00 0.00 0.00 76 1014.6
20260510154518 30 199 6.4 14.5 0.00 0.00 0.00 75 1014.6
20260510153746 30 126 6.4 14.5 0.00 0.00 0.00 76 1014.6
20260510153241 30 151 6.4 16.1 0.00 0.00 0.00 77 1014.6
20260510152953 30 225 6.4 16.1 0.00 0.00 0.00 77 1014.6
20260510152229 30 185 4.8 12.9 0.00 0.00 0.00 80 1014.7
20260510151949 29 269 4.8 12.9 0.00 0.00 0.00 81 1014.7
20260510151216 28 198 4.8 9.7 0.00 0.00 0.00 82 1014.8
20260510150711 28 231 4.8 9.7 0.00 0.00 0.00 83 1014.8
20260510150204 28 245 4.8 11.3 0.00 0.00 0.00 82 1014.7
20260510145659 28 209 4.8 19.3 0.00 0.00 0.00 81 1014.7
20260510145153 28 127 8.0 19.3 0.00 0.00 0.00 83 1014.7
20260510144647 28 217 8.0 12.9 0.00 0.00 0.00 82 1014.6
20260510144141 28 146 6.4 12.9 0.00 0.00 0.00 83 1014.6
20260510143635 28 226 4.8 11.3 0.00 0.00 0.00 85 1014.5
20260510143404 27 131 4.8 11.3 0.00 0.00 0.00 86 1014.5
20260510142636 27 225 6.4 12.9 0.00 0.00 0.00 86 1014.6
20260510142117 27 236 6.4 12.9 0.00 0.00 0.00 87 1014.5
20260510141611 27 219 4.8 12.9 0.00 0.00 0.00 87 1014.6
20260510141327 27 185 6.4 12.9 0.00 0.00 0.00 88 1014.6
20260510140559 27 213 6.4 14.5 0.00 0.00 0.00 88 1014.6
20260510140053 26 178 4.8 14.5 0.00 0.00 0.00 87 1014.4
20260510135547 26 217 4.8 11.3 0.00 0.00 0.00 89 1014.4
20260510135041 26 108 4.8 11.3 0.00 0.00 0.00 89 1014.4
20260510134534 26 146 3.2 11.3 0.00 0.00 0.00 91 1014.3
20260510134029 26 152 4.8 9.7 0.00 0.00 0.00 91 1014.3
20260510133524 26 207 6.4 12.9 0.00 0.00 0.00 93 1014.3
20260510133024 25 216 6.4 12.9 0.00 0.00 0.00 94 1014.3
20260510132511 25 213 3.2 11.3 0.00 0.00 0.00 95 1014.3
20260510132005 25 225 3.2 11.3 0.00 0.00 0.00 97 1014.1
20260510131459 24 231 6.4 11.3 0.00 0.00 0.00 98 1014.1
20260510130953 24 218 4.8 11.3 0.00 0.00 0.00 98 1014.2
20260510130447 24 236 0.0 6.4 0.00 0.00 0.00 99 1014.1
20260510125941 24 225 0.0 0.0 0.00 0.00 0.00 100 1014.1
20260510125435 23 213 0.0 0.0 0.00 0.00 0.00 100 1014.1
20260510125116 23 231 0.0 0.0 0.00 0.00 0.00 100 1014.0
20260510125007 23 229 0.0 0.0 0.00 0.00 0.00 100 1014.0
20260510124519 23 229 0.0 0.0 0.00 0.00 0.00 100 1014.0
20260510123631 23 237 0.0 0.0 0.00 0.00 0.00 100 1014.0
20260510122905 23 257 0.0 0.0 0.00 0.00 0.00 100 1013.9
20260510122358 23 265 0.0 0.0 0.00 0.00 0.00 100 1013.9
20260510121853 23 250 0.0 0.0 0.00 0.00 0.00 100 1013.8
20260510121347 22 265 0.0 0.0 0.00 0.00 0.00 100 1013.7
20260510121100 22 265 0.0 0.0 0.00 0.00 0.00 100 1013.6
20260510120332 22 265 0.0 0.0 0.00 0.00 0.00 100 1013.6
20260510115832 22 265 0.0 0.0 0.00 0.00 0.00 100 1013.4
20260510115336 22 263 0.0 0.0 0.00 0.00 0.00 100 1013.3
20260510114836 22 265 0.0 0.0 0.00 0.00 0.00 100 1013.2
20260510114330 22 263 0.0 0.0 0.00 0.00 0.00 100 1013.2
20260510114310 22 265 0.0 0.0 0.00 0.00 0.00 100 1013.2
20260510113330 22 265 0.0 0.0 0.00 0.00 0.00 100 1013.1
20260510112828 21 265 0.0 0.0 0.00 0.00 0.00 100 1013.0
20260510112549 21 265 0.0 0.0 0.00 0.00 0.00 100 1013.0
20260510111828 21 263 0.0 0.0 0.00 0.00 0.00 100 1012.9
20260510111330 21 265 0.0 0.0 0.00 0.00 0.00 100 1012.9
20260510110828 21 263 0.0 0.0 0.00 0.00 0.00 100 1012.9
20260510110330 21 264 0.0 0.0 0.00 0.00 0.00 100 1012.7
20260510105825 21 265 0.0 0.0 0.00 0.00 0.00 100 1012.6
20260510105552 21 265 0.0 0.0 0.00 0.00 0.00 100 1012.5
20260510105314 21 265 0.0 0.0 0.00 0.00 0.00 100 1012.5
20260510104325 21 263 0.0 0.0 0.00 0.00 0.00 100 1012.4
20260510103825 21 265 0.0 0.0 0.00 0.00 0.00 100 1012.4
20260510103550 21 265 0.0 0.0 0.00 0.00 0.00 100 1012.3
20260510102824 22 265 0.0 0.0 0.00 0.00 0.00 100 1012.2
20260510102324 22 265 0.0 0.0 0.00 0.00 0.00 100 1012.2
20260510101826 22 263 0.0 0.0 0.00 0.00 0.00 100 1012.2
20260510101320 22 265 0.0 0.0 0.00 0.00 0.00 100 1012.1
20260510100820 22 265 0.0 0.0 0.00 0.00 0.00 100 1012.0
20260510100322 22 263 0.0 0.0 0.00 0.00 0.00 100 1012.0
20260510095821 22 263 0.0 0.0 0.00 0.00 0.00 100 1011.9
20260510095320 22 263 0.0 0.0 0.00 0.00 0.00 100 1011.8
20260510094821 22 265 0.0 0.0 0.00 0.00 0.00 100 1011.8
20260510094321 22 265 0.0 0.0 0.00 0.00 0.00 100 1011.8
20260510093820 22 265 0.0 0.0 0.00 0.00 0.00 100 1011.8
20260510093322 22 263 0.0 0.0 0.00 0.00 0.00 100 1011.7
20260510093044 22 263 0.0 0.0 0.00 0.00 0.00 100 1011.7
20260510092321 22 225 0.0 0.0 0.00 0.00 0.00 100 1011.7
20260510091821 22 137 0.0 0.0 0.00 0.00 0.00 100 1011.6
20260510091322 22 137 0.0 0.0 0.00 0.00 0.00 100 1011.6
20260510091040 22 152 0.0 0.0 0.00 0.00 0.00 100 1011.6
20260510090321 22 146 0.0 0.0 0.00 0.00 0.00 100 1011.6
20260510085821 22 160 0.0 0.0 0.00 0.00 0.00 100 1011.5
20260510085322 22 122 0.0 0.0 0.00 0.00 0.00 100 1011.5
20260510084822 22 129 0.0 0.0 0.00 0.00 0.00 100 1011.4
20260510084538 22 129 0.0 0.0 0.00 0.00 0.00 100 1011.2
20260510084036 22 136 0.0 0.0 0.00 0.00 0.00 100 1011.3
20260510083309 22 184 0.0 0.0 0.00 0.00 0.00 100 1011.2
20260510082803 22 161 0.0 0.0 0.00 0.00 0.00 100 1011.3
20260510082257 22 161 0.0 0.0 0.00 0.00 0.00 100 1011.3
20260510082012 22 161 0.0 0.0 0.00 0.00 0.00 100 1011.2
20260510081245 22 161 0.0 0.0 0.00 0.00 0.00 100 1011.2
20260510080958 22 131 0.0 0.0 0.00 0.00 0.00 100 1011.1
20260510080233 22 129 0.0 0.0 0.00 0.00 0.00 100 1011.0
20260510075949 22 128 0.0 0.0 0.00 0.00 0.00 100 1011.0
20260510075221 22 116 0.0 3.2 0.00 0.00 0.00 100 1011.0
20260510074714 22 123 1.6 4.8 0.00 0.00 0.00 100 1011.0
20260510074209 22 136 1.6 6.4 0.00 0.00 0.00 100 1010.9
20260510074128 22 57 1.6 6.4 0.00 0.00 0.00 100 1010.9
20260510073755 22 85 1.6 6.4 0.00 0.00 0.00 100 1010.9
20260510072651 22 82 1.6 8.0 0.00 0.00 0.00 100 1011.0
20260510072145 22 100 1.6 8.0 0.00 0.00 0.00 100 1011.2
20260510071639 22 129 1.6 6.4 0.00 0.00 0.00 100 1011.2
20260510071134 22 82 3.2 8.0 0.00 0.00 0.00 100 1011.2
20260510070848 22 184 3.2 11.3 0.00 0.00 0.00 100 1011.2
20260510070153 22 103 3.2 11.3 0.00 0.00 0.00 100 1011.3
20260510065614 22 139 1.6 6.4 0.00 0.00 0.00 100 1011.4
20260510065109 22 92 1.6 6.4 0.00 0.00 0.00 100 1011.3
20260510064824 22 108 1.6 6.4 0.00 0.00 0.00 100 1011.3
20260510064057 22 82 0.0 4.8 0.00 0.00 0.00 100 1011.4
20260510063555 22 101 0.0 0.0 0.00 0.00 0.00 100 1011.6
20260510063044 22 115 0.0 0.0 0.00 0.00 0.00 100 1011.6
20260510062539 22 108 0.0 1.6 0.00 0.00 0.00 100 1011.7
20260510062033 22 66 0.0 1.6 0.00 0.00 0.00 100 1011.9
20260510061527 22 236 0.0 0.0 0.00 0.00 0.00 100 1012.0
20260510061021 22 265 0.0 1.6 0.00 0.00 0.00 100 1012.0
20260510060515 22 238 0.0 1.6 0.00 0.00 0.00 100 1012.1
20260510060009 22 251 0.0 1.6 0.00 0.00 0.00 100 1012.2
20260510055502 22 108 0.0 0.0 0.00 0.00 0.00 100 1012.2
20260510054957 22 84 0.0 0.0 0.00 0.00 0.00 100 1012.3
20260510054451 22 85 0.0 0.0 0.00 0.00 0.00 100 1012.5
20260510053944 22 82 0.0 0.0 0.00 0.00 0.00 99 1012.4
20260510053658 22 82 0.0 0.0 0.00 0.00 0.00 99 1012.5
20260510052933 22 94 0.0 0.0 0.00 0.00 0.00 99 1012.5
20260510052912 22 103 0.0 0.0 0.00 0.00 0.00 99 1012.6
20260510051921 22 103 0.0 0.0 0.00 0.00 0.00 99 1012.6
20260510051637 22 103 0.0 0.0 0.00 0.00 0.00 99 1012.8
20260510050909 22 103 0.0 0.0 0.00 0.00 0.00 99 1012.9
20260510050403 22 100 0.0 0.0 0.00 0.00 0.00 99 1012.9
20260510045857 22 99 0.0 0.0 0.00 0.00 0.00 99 1012.9
20260510045351 22 236 0.0 0.0 0.00 0.00 0.00 99 1013.0
20260510044845 22 236 0.0 0.0 0.00 0.00 0.00 99 1013.0
20260510044339 22 237 0.0 0.0 0.00 0.00 0.00 99 1013.0
20260510043833 22 237 0.0 0.0 0.00 0.00 0.00 98 1013.1
20260510043327 22 240 0.0 0.0 0.00 0.00 0.00 98 1013.1
20260510042820 22 240 0.0 0.0 0.00 0.00 0.00 99 1013.1
20260510042315 22 260 0.0 0.0 0.00 0.00 0.00 99 1013.1
20260510042028 22 258 0.0 0.0 0.00 0.00 0.00 99 1013.1
20260510041526 22 265 0.0 0.0 0.00 0.00 0.00 100 1013.0
20260510040757 22 250 0.0 0.0 0.00 0.00 0.00 100 1013.1
20260510040250 22 116 0.0 0.0 0.00 0.00 0.00 100 1013.0
20260510035745 22 146 0.0 0.0 0.00 0.00 0.00 100 1013.1
20260510035239 22 146 0.0 0.0 0.00 0.00 0.00 100 1013.0
20260510034951 22 136 0.0 0.0 0.00 0.00 0.00 99 1013.0
20260510034453 22 151 0.0 0.0 0.00 0.00 0.00 100 1013.1
20260510033721 22 78 0.0 0.0 0.00 0.00 0.00 99 1013.2
20260510033215 22 70 0.0 0.0 0.00 0.00 0.00 99 1013.2
20260510032709 22 57 0.0 0.0 0.00 0.00 0.00 99 1013.1
20260510032203 22 46 0.0 0.0 0.00 0.00 0.00 99 1013.1
20260510031657 22 46 0.0 0.0 0.00 0.00 0.00 99 1013.0
20260510031151 22 39 0.0 0.0 0.00 0.00 0.00 99 1013.1
20260510030911 22 32 0.0 0.0 0.00 0.00 0.00 99 1013.1
20260510030139 22 314 0.0 0.0 0.00 0.00 0.00 99 1013.1
20260510025633 22 302 0.0 0.0 0.00 0.00 0.00 99 1013.1
20260510025348 22 293 0.0 0.0 0.00 0.00 0.00 99 1013.0
20260510024621 22 294 0.0 0.0 0.00 0.00 0.00 99 1013.0
20260510024335 22 295 0.0 0.0 0.00 0.00 0.00 99 1012.9
20260510023609 22 294 0.0 0.0 0.00 0.00 0.00 98 1012.8
20260510023321 22 295 0.0 0.0 0.00 0.00 0.00 98 1012.7
20260510022557 23 276 0.0 0.0 0.00 0.00 0.00 98 1012.8
20260510022051 23 269 0.0 0.0 0.00 0.00 0.00 98 1012.6
20260510021545 23 265 0.0 0.0 0.00 0.00 0.00 98 1012.4
20260510021038 23 265 0.0 1.6 0.00 0.00 0.00 98 1012.4
20260510020532 23 261 0.0 1.6 0.00 0.00 0.00 99 1012.4
20260510020027 22 245 0.0 0.0 0.00 0.00 0.00 98 1012.4
20260510015521 23 246 0.0 0.0 0.00 0.00 0.00 98 1012.4
20260510015232 23 277 0.0 0.0 0.00 0.00 0.00 98 1012.1
20260510014509 23 108 0.0 0.0 0.00 0.00 0.00 98 1012.4
20260510014003 23 71 0.0 0.0 0.00 0.00 0.00 98 1012.0
20260510013457 23 70 0.0 0.0 0.00 0.00 0.00 98 1012.2
20260510012951 23 71 0.0 0.0 0.00 0.00 0.00 98 1012.2
20260510012444 23 69 1.6 6.4 0.00 0.00 0.00 98 1012.1
20260510011939 23 63 1.6 6.4 0.00 0.00 0.00 98 1011.7
20260510011438 23 44 1.6 4.8 0.00 0.00 0.00 98 1011.8
20260510010939 23 57 0.0 4.8 0.00 0.00 0.00 98 1011.7
20260510010439 23 90 1.6 8.0 0.00 0.00 0.00 98 1011.5
20260510005938 23 53 1.6 8.0 0.00 0.00 0.00 98 1011.5
20260510005438 23 57 1.6 6.4 0.00 0.00 0.00 97 1011.5
20260510004953 23 57 0.0 3.2 0.00 0.00 0.00 97 1011.6
20260510004446 23 13 0.0 4.8 0.00 0.00 0.00 97 1011.7
20260510003938 23 314 1.6 8.0 0.00 0.00 0.00 97 1011.8
20260510003438 23 314 1.6 8.0 0.00 0.00 0.00 97 1011.7
20260510003156 23 32 0.0 8.0 0.00 0.00 0.00 97 1011.6
20260510002435 23 328 0.0 1.6 0.00 0.00 0.00 97 1011.6
20260510001936 23 285 1.6 4.8 0.00 0.00 0.00 97 1011.5
20260510001437 23 305 3.2 8.0 0.00 0.00 0.00 97 1011.3
20260510000935 23 316 1.6 8.0 0.00 0.00 0.00 97 1011.4
20260510000435 23 314 3.2 8.0 0.00 0.00 0.00 97 1011.3
20260509235934 23 269 3.2 9.7 0.00 0.00 0.00 97 1011.2
20260509235435 24 296 1.6 9.7 0.00 0.00 0.00 97 1011.2
20260509234930 24 277 0.0 0.0 0.00 0.00 0.00 97 1011.1
20260509234652 24 319 0.0 0.0 0.00 0.00 0.00 97 1011.1
20260509233930 24 292 0.0 0.0 0.00 0.00 0.00 97 1011.1
20260509233429 24 305 0.0 8.0 0.00 0.00 0.00 97 1011.2
20260509233148 24 273 1.6 8.0 0.00 0.00 0.00 96 1011.2
20260509232429 24 293 3.2 8.0 0.00 0.00 0.00 96 1011.3
20260509232150 24 285 4.8 8.0 0.00 0.00 0.00 96 1011.3
20260509231431 24 283 1.6 8.0 0.00 0.00 0.00 96 1011.2
20260509230932 24 304 1.6 4.8 0.00 0.00 0.00 96 1011.0
20260509230432 24 304 1.6 4.8 0.00 0.00 0.00 96 1011.0
20260509230154 24 326 1.6 4.8 0.00 0.00 0.00 96 1010.9
20260509225646 24 295 1.6 8.0 0.00 0.00 0.00 96 1010.9
20260509224926 24 306 3.2 8.0 0.00 0.00 0.00 95 1010.9
20260509224424 24 297 3.2 9.7 0.00 0.00 0.00 95 1010.9
20260509223924 24 326 1.6 9.7 0.00 0.00 0.00 95 1010.8
20260509223424 25 333 1.6 9.7 0.00 0.00 0.00 95 1010.8
20260509222924 25 314 3.2 9.7 0.00 0.00 0.00 95 1010.8
20260509222425 25 326 3.2 9.7 0.00 0.00 0.00 94 1010.8
20260509221925 25 281 3.2 11.3 0.00 0.00 0.00 94 1010.8
20260509221640 25 314 3.2 11.3 0.00 0.00 0.00 94 1010.8
20260509220919 25 333 3.2 11.3 0.00 0.00 0.00 94 1010.7
20260509220421 25 321 3.2 11.3 0.00 0.00 0.00 94 1010.7
20260509220138 25 299 3.2 11.3 0.00 0.00 0.00 93 1010.7
20260509215424 25 298 4.8 14.5 0.00 0.00 0.00 93 1010.7
20260509214921 25 314 4.8 14.5 0.00 0.03 0.00 93 1010.7
20260509214420 25 326 4.8 11.3 0.00 0.15 0.00 93 1010.7
20260509213919 25 290 3.2 11.3 0.00 0.18 0.00 92 1010.7
20260509213421 25 293 3.2 9.7 0.00 0.18 0.00 92 1010.6
20260509212915 25 314 4.8 14.5 0.00 0.18 0.00 92 1010.5
20260509212415 25 290 4.8 14.5 0.00 0.18 0.00 92 1010.4
20260509211915 25 313 4.8 14.5 0.00 0.18 0.00 92 1010.4
20260509211414 25 321 4.8 14.5 0.00 0.20 0.00 92 1010.5
20260509210910 25 326 4.8 14.5 0.00 0.20 0.00 91 1010.5
20260509210409 25 309 4.8 12.9 0.00 0.20 0.00 91 1010.6
20260509205910 25 291 3.2 12.9 0.00 0.20 0.00 92 1010.6
20260509205409 25 314 3.2 9.7 0.00 0.20 0.00 92 1010.6
20260509204910 25 314 3.2 9.7 0.00 0.20 0.00 92 1010.5
20260509204410 25 47 4.8 9.7 0.00 0.20 0.00 92 1010.5
20260509203909 25 9 3.2 9.7 0.00 0.20 0.00 92 1010.5
20260509203407 25 23 3.2 9.7 0.00 0.20 0.00 93 1010.5
20260509202907 25 352 3.2 9.7 0.00 0.23 0.00 93 1010.5
20260509202632 25 349 4.8 12.9 0.00 0.28 0.00 92 1010.6
20260509201906 25 338 4.8 12.9 0.00 0.30 0.00 91 1010.6
20260509201638 25 10 6.4 14.5 0.00 0.30 0.00 89 1010.5
20260509200910 25 290 6.4 14.5 0.00 0.30 0.00 88 1010.7
20260509200628 25 292 3.2 14.5 0.00 0.30 0.00 87 1010.8
20260509195906 25 347 1.6 9.7 0.00 0.30 0.00 88 1010.6
20260509195407 25 311 0.0 6.4 0.00 0.33 0.00 87 1010.4
20260509194905 25 39 0.0 0.0 0.00 0.41 0.00 88 1010.1
20260509194404 25 314 1.6 4.8 0.00 0.43 0.00 89 1010.1
20260509193901 25 340 1.6 6.4 0.00 0.48 0.00 90 1010.1
20260509193403 25 357 1.6 6.4 0.00 0.53 0.00 90 1010.2
20260509192901 25 39 1.6 6.4 0.00 0.53 0.00 90 1010.3
20260509192401 25 354 3.2 6.4 0.00 0.53 0.00 90 1010.3
20260509191857 25 326 3.2 8.0 0.00 0.53 0.00 89 1010.2
20260509191357 25 327 6.4 12.9 0.00 0.53 0.00 88 1010.4
20260509191116 26 254 11.3 22.5 0.00 0.53 0.00 86 1010.4
20260509190401 26 242 14.5 25.7 0.00 0.53 0.00 86 1010.6
20260509190343 28 267 11.3 25.7 0.00 0.53 0.00 80 1010.8
20260509185415 29 254 6.4 16.1 0.00 0.53 0.00 78 1010.4
20260509184849 29 259 3.2 8.0 0.00 0.53 0.00 77 1010.2
20260509184342 30 290 1.6 8.0 0.00 0.53 0.00 77 1010.1
20260509183837 30 293 4.8 9.7 0.00 0.53 0.00 75 1010.1
20260509183331 30 277 4.8 9.7 0.00 0.53 0.00 74 1010.3
20260509183315 30 269 3.2 8.0 0.00 0.53 0.00 76 1010.2
20260509182319 30 274 4.8 11.3 0.00 0.53 0.00 74 1010.0
20260509181812 30 327 3.2 11.3 0.00 0.53 0.00 74 1010.3
20260509181307 30 290 1.6 9.7 0.00 0.53 0.00 75 1010.5
20260509180801 30 274 4.8 12.9 0.00 0.53 0.00 76 1010.5
20260509180254 30 290 6.4 14.5 0.00 0.53 0.00 74 1010.6
20260509175749 30 278 6.4 14.5 0.00 0.53 0.00 74 1010.8
20260509175242 30 282 4.8 14.5 0.00 0.53 0.00 74 1010.7
20260509175000 30 271 6.4 14.5 0.00 0.53 0.00 74 1010.8
20260509174229 30 290 8.0 14.5 0.00 0.53 0.00 74 1010.9
20260509173723 29 290 9.7 17.7 0.00 0.53 0.00 74 1010.9
20260509173439 29 276 8.0 17.7 0.00 0.53 0.00 75 1011.0
20260509172711 29 295 8.0 12.9 0.00 0.53 0.00 76 1011.0
20260509172205 29 310 8.0 16.1 0.00 0.53 0.00 75 1010.9
20260509172136 29 275 8.0 16.1 0.00 0.53 0.00 75 1011.0